Terug naar catalogus

COSMOS 520

LostMilitairHEO
NORAD 6192·PAYLOAD·🇷🇺 Russia

Gelanceerd Sep 19, 1972 vanaf Plesetsk Cosmodrome

Loading…

Volgende Passages (komende 24 uur)

TLE

VerouderdSource: Space-Track

Epoch: Sep 18, 2025, 17:17 UTC

1  6192U 72072A   25261.72048154  .00000024  00000-0  00000+0 0  9998
2  6192  71.7596 235.5632 4871314 193.2966 142.1440  2.01349278389715

Volg COSMOS 520 in realtime met AllMySat

Download on the App Store